Location: Collado del Boquerón
(40.5833°N, 4.5833°W)
Time: 14:58:31
(UTC+00:00)

Daily predictions for brighter satellites

Satellite Brightness Start Highest point End
(mag) Time Altitude Azimuth Time Altitude Azimuth Time Altitude Azimuth
Cosmos 1833 Rocket 3.2 20:18:03 10° S 20:23:10 38° ESE 20:28:19 10° NE
Okean O Rocket 4.4 20:21:30 10° SW 20:24:03 15° W 20:26:37 10° WNW
H-2A R/B 2.3 20:24:02 10° NNE 20:28:27 57° E 20:32:52 10° S
Cosmos 1536 Rocket 4.3 20:25:44 10° SSE 20:29:37 34° E 20:33:33 10° NNE
Cosmos 1703 4.4 20:27:43 10° SE 20:30:50 24° E 20:33:58 10° NE
Okean-O 3.8 20:26:44 10° S 20:30:57 43° W 20:35:11 10° NNW
Cosmos 676 Rocket 4.1 20:27:10 10° NNW 20:32:29 82° WSW 20:37:43 10° SSE
Cosmos 1975 Rocket 4.1 20:31:15 10° SSW 20:35:34 51° W 20:39:53 10° N
Ariane Rocket 3.5 20:32:20 10° SE 20:37:08 44° ENE 20:41:58 10° N
ASTRO E2 4.5 20:35:26 10° SSW 20:37:37 14° SSE 20:39:32 11° SE
IRS-1A Rocket 4.5 20:37:20 10° SSE 20:43:11 69° ENE 20:49:01 10° N
PSLV R/B 3.9 20:39:44 10° NNE 20:43:55 76° ESE 20:48:05 10° S
Landsat 7 4.2 20:40:43 10° S 20:45:24 66° W 20:50:06 10° NNW
Terra 3.8 20:44:43 10° E 20:47:21 15° ENE 20:49:59 10° NNE
CZ-4B R/B 1.1 20:45:06 10° NNE 20:47:56 52° E 20:50:46 10° S
SPOT 3 Rocket 4.4 20:44:20 11° SE 20:48:48 36° ENE 20:53:33 10° N
SPOT 5 4.2 20:46:56 11° ESE 20:49:55 20° ENE 20:53:04 10° NNE
ATLAS 2AS CENTAUR R/B 3.1 20:43:16 10° NW 20:50:07 61° WSW 20:56:33 10° SSE
RESURS DK-1 2.6 20:49:31 10° NNW 20:53:36 58° ENE 20:56:54 15° SE
Cosmos 1544 Rocket 3.6 20:50:15 10° N 20:54:35 80° W 20:58:56 10° S
SL-24 R/B 4.4 20:52:19 12° SSE 20:56:22 62° ENE 21:01:19 10° N
Cosmos 1271 Rocket 3.0 20:52:30 10° NNW 20:56:26 69° W 21:00:17 10° S
Cosmos 1455 2.3 20:52:55 10° N 20:56:44 75° W 21:00:32 10° S
Cosmos 1331 Rocket 4.0 20:55:03 10° S 21:00:16 64° ESE 21:05:31 10° NNE
Cosmos 1850 Rocket 4.0 20:55:42 10° NNW 21:00:53 68° ENE 21:05:09 15° SSE
Cosmos 2082 Rocket 2.9 20:56:24 10° SSE 21:01:23 32° ESE 21:06:22 10° NE
IRAS Rocket 4.2 20:59:13 10° NNE 21:04:46 65° ESE 21:10:14 10° S
Cosmos 2074 Rocket 4.1 20:59:42 10° N 21:05:55 63° E 21:11:20 14° SSE
Helios 1A Rocket 4.3 21:04:55 16° ESE 21:07:12 25° ENE 21:10:34 10° NNE
Spot 2 Rocket 4.4 21:04:02 16° SE 21:07:32 35° ENE 21:12:09 10° N
USA 32 4.5 21:02:51 10° SSW 21:08:00 64° W 21:13:12 10° N
Cosmos 2084 Rocket 4.4 21:07:43 10° NNW 21:11:19 33° NE 21:13:53 17° ESE
Nadezhda 1 Rocket 4.2 21:06:41 11° SSE 21:12:14 50° E 21:18:04 10° NNE
GEOS 3 Rocket 3.6 21:09:16 17° SE 21:13:14 88° NE 21:18:23 10° NW
Lacrosse 5 3.5 21:10:43 10° WNW 21:14:53 26° WSW 21:19:03 10° S
Delta 2 Rocket 3.6 21:13:25 10° WSW 21:16:29 33° S 21:17:33 26° SSE
SPOT 1/Viking Rocket 3.9 21:12:05 10° S 21:17:10 64° WSW 21:22:19 10° NNW
X-37B 0.4 21:21:33 10° WNW 21:24:21 70° NNE 21:25:27 32° E
ERS-1 Rocket 3.5 21:22:06 21° SE 21:25:04 43° ENE 21:29:49 10° N
Cosmos 1656 4.3 21:20:09 10° NNW 21:25:28 51° WSW 21:30:07 14° S
Cosmos 1892 4.3 21:26:27 18° E 21:26:42 18° E 21:29:18 10° NE
MetOp-B 4.3 21:23:24 15° S 21:27:56 75° WSW 21:33:19 10° NNW
Meteor 1-21 Rocket 4.2 21:23:23 10° S 21:28:57 79° E 21:34:41 10° NNE
Cosmos 1110 Rocket 4.5 21:24:14 10° SSW 21:29:26 64° WNW 21:34:43 10° NNE
Cosmos 1302 Rocket 4.0 21:27:47 13° S 21:32:23 59° ESE 21:37:29 10° NNE
Cosmos 192 4.2 21:30:47 10° S 21:35:38 75° ESE 21:40:33 10° NNE
SL-8 R/B 3.7 21:32:05 10° WNW 21:36:53 74° SSW 21:39:18 29° SE
Cosmos 2228 2.9 21:32:42 10° N 21:36:57 86° W 21:39:22 25° S
Cosmos 1892 Rocket 3.9 21:38:01 30° SE 21:39:45 45° E 21:43:55 10° NNE
Cosmos 2154 Rocket 3.9 21:34:05 10° N 21:40:19 82° E 21:44:32 22° S
Cosmos 968 Rocket 3.9 21:39:01 10° N 21:44:06 49° ENE 21:46:30 28° SE
Cosmos 1697 Rocket 2.7 21:41:00 10° NNW 21:46:37 75° WSW 21:49:50 26° SSE
Cosmos 1980 Rocket 2.5 21:41:43 10° NNW 21:47:19 56° ENE 21:50:07 29° SE
Cosmos 1408 3.0 21:48:44 38° E 21:48:51 38° E 21:52:05 10° NNE
SL-16 R/B 4.2 21:45:51 10° N 21:49:34 17° NE 21:52:57 11° E
ATLAS 5 CENTAUR R/B 1.2 21:50:51 45° SSE 21:51:25 50° ESE 21:55:13 10° NE
Cosmos 2058 Rocket 3.9 21:48:03 10° N 21:52:11 37° ENE 21:53:20 31° ESE
Resurs 01 Rocket 3.8 21:49:03 10° SW 21:52:24 21° W 21:55:46 10° NW
Cosmos 2369 3.7 21:50:04 10° NNW 21:55:49 74° ENE 21:58:31 32° SE
CZ-2C R/B 3.5 21:52:05 10° NNE 21:56:36 79° ESE 21:58:48 30° S
USA 267 3.8 21:51:48 10° ENE 21:57:37 33° SE 21:59:30 28° SSE
COSMOS 2406 3.8 21:55:54 10° SW 22:01:34 58° WNW 22:07:16 10° NNE
Meteor 2-1 Rocket 4.3 21:56:08 10° NNW 22:01:39 76° W 22:04:43 28° S
Cosmos 1825 3.3 22:08:00 29° ENE 22:08:00 29° ENE 22:10:52 10° NNE
Cosmos 1867 3.6 22:07:50 10° NNW 22:13:20 77° ENE 22:15:18 41° SE
Cosmos 1606 Rocket 4.2 22:11:02 10° NNW 22:15:13 50° W 22:16:57 31° SSW
Cosmos 2366 rocket 4.4 22:09:47 10° N 22:15:56 50° ENE 22:18:15 35° SE
Cosmos 1869 4.3 22:14:54 10° NNE 22:18:26 31° ENE 22:18:26 31° ENE
Cosmos 2218 Rocket 4.3 22:16:08 10° N 22:22:26 56° E 22:24:43 38° SE
ARIANE 5 R/B 2.5 22:21:46 53° S 22:22:48 87° WSW 22:27:15 10° NNW
Cosmos 2322 Rocket 3.9 22:19:25 10° N 22:23:51 23° NE 22:26:28 17° E
Terra 2.1 22:22:57 39° SSW 22:24:33 62° WSW 22:29:17 10° NNW
GP-B 3.1 22:21:28 10° N 22:25:53 64° E 22:26:26 58° SE
Meteor 1-27 4.5 22:20:30 10° N 22:25:57 54° ENE 22:27:28 42° SE
SPOT 5 3.8 22:26:09 26° SW 22:27:46 35° W 22:31:45 10° NNW
USA 276 4.1 22:25:34 10° NW 22:28:01 22° NNE 22:28:42 20° NE
SAR-Lupe-4 4.1 22:26:41 10° NNE 22:29:35 47° ENE 22:29:35 47° ENE
FALCON 9 DEB 4.2 22:27:23 10° NW 22:30:26 35° NNE 22:30:31 35° NE
Cosmos 2344 4.4 22:21:26 10° NW 22:30:55 79° WSW 22:38:18 31° SSE
Cosmos 2278 3.6 22:31:59 10° NNW 22:37:44 83° ENE 22:39:18 50° SSE
Cosmos 1633 4.1 22:39:00 25° NE 22:39:00 25° NE 22:40:55 10° NNE
Cosmos 1992 Rocket 4.0 22:37:43 36° SSW 22:39:54 78° WNW 22:45:10 10° NNE
Okean 1-7 Rocket 3.4 22:40:58 71° S 22:41:26 86° E 22:45:58 10° N
Cosmos 2341 Rocket 4.1 22:35:27 10° NNW 22:41:44 73° W 22:44:11 39° SSW
Cosmos 864 Rocket 4.4 22:36:22 10° N 22:42:35 78° E 22:44:32 47° SSE
Cosmos 2082 Rocket 3.6 22:40:06 10° SW 22:45:21 37° WNW 22:50:36 10° N
SAR-Lupe-1 4.3 22:43:25 10° N 22:46:41 67° NNW 22:46:41 67° NNW
Cosmos 1486 Rocket 3.9 22:43:54 10° NNW 22:49:09 82° ENE 22:50:04 61° SSE
ASTEX 1 3.5 22:44:54 10° N 22:49:54 72° W 22:51:10 49° SSW
Cosmos 1606 4.5 22:51:47 10° NNE 22:54:21 23° ENE 22:54:21 23° ENE
Cosmos-2242 3.9 22:51:30 10° N 22:55:10 36° ENE 22:55:10 36° ENE
Cosmos 1812 Rocket 4.0 22:51:55 10° N 22:56:09 49° ENE 22:56:09 49° ENE
ADEOS Rocket 4.3 22:53:13 27° ESE 22:56:24 39° ENE 23:03:26 10° N
Gbstr 26 Del rocket 3.7 22:58:59 42° ENE 22:58:59 42° ENE 23:02:15 10° NE
Cosmos 2360 Rocket 3.7 22:53:39 10° N 22:58:26 27° NE 23:00:32 22° E
Cosmos 1892 4.4 23:01:15 24° W 23:02:01 26° WNW 23:05:14 10° NNW
Cosmos 2181 Rocket 4.3 23:01:56 34° SW 23:04:34 60° W 23:10:45 10° N
Cosmos 1602 Rocket 3.5 23:05:35 81° NNE 23:05:35 81° NNE 23:09:43 10° N
Cosmos 1821 Rocket 4.0 23:04:00 10° N 23:10:10 63° E 23:11:22 52° SE
Cosmos 44 4.4 23:14:09 30° ENE 23:14:09 30° ENE 23:16:48 10° NE
Cosmos 1354 Rocket 3.9 23:13:48 10° NNW 23:19:06 73° ENE 23:19:33 68° ESE
CENTAUR R/B 4.3 23:22:31 15° E 23:22:31 15° E 23:24:49 10° ENE
ALOS 2 3.4 23:21:37 42° ENE 23:21:37 42° ENE 23:25:34 10° N
Cosmos 2237 4.4 23:15:49 10° NNW 23:21:30 60° ENE 23:22:29 52° ESE
Spot 4 3.8 23:21:49 73° E 23:21:54 73° ENE 23:26:41 10° N
Cosmos 1503 Rocket 3.9 23:22:18 10° NNW 23:27:35 77° WSW 23:27:51 75° SW
Cosmos 2058 3.7 23:29:58 47° NE 23:29:58 47° NE 23:33:11 10° NNE
Nadezhda 3 Rocket 3.8 23:28:02 63° S 23:29:06 83° E 23:35:18 10° N
Cosmos 1980 Rocket 3.9 23:26:48 10° NW 23:30:49 20° W 23:31:53 19° WSW
Cosmos 1777 Rocket 4.1 23:27:29 10° NNW 23:32:44 62° ENE 23:33:07 60° E
H-2A R/B 4.0 23:29:29 10° NNE 23:32:48 52° NE 23:32:48 52° NE
Cosmos 2219 Rocket 4.0 23:29:40 10° N 23:34:08 23° NE 23:36:40 17° E
SL-16 R/B 2.0 23:28:38 10° NNW 23:34:19 77° WSW 23:34:48 71° SSW
ATLAS 5 CENTAUR R/B 4.1 23:33:51 10° WNW 23:36:18 16° NW 23:38:54 10° N
SL-4 R/B 3.3 23:40:05 32° N 23:40:05 32° N 23:42:56 10° NE
Cosmos 1825 Rocket 3.9 23:41:10 63° N 23:41:10 63° N 23:44:50 10° N
USA 267 3.5 23:34:22 10° NE 23:40:52 69° NW 23:46:45 13° WSW
SJ 16-02 1.6 23:36:41 10° NNW 23:40:31 66° NNW 23:40:31 66° NNW
Meteor 2-2 Rocket 4.4 23:37:21 10° N 23:43:21 65° E 23:44:11 59° ESE
Cosmos 2221 3.7 23:48:41 10° N 23:52:14 36° ENE 23:52:14 36° ENE
